CW9533 Torre Faro Messina IT current weather conditions

sailwx.info

Wind from 351 at 2 knots gusting 6

Air temperature 20.6° C
Dewpoint 15.5° C

Last reported at 2018-Apr-25 14:05 UTC.
Time now 2018-Apr-25 14:44 UTC

Location: N 38°16' E 015°39'.
View on Google Maps.

See reports from other nearby stations

  
Tides and Currents Weather Stations Pressure Air Temp Water Temp Dewpoint Dewpoint Depression Visibility Wind Speed Wind Dir Waves Ship Positions
date/time (UTC)wind fromknots sea level pressurealtimeterstation pressurevisibilityair tempwater tempwave heightnotes
2018-Apr-25 14:20 019 4 gusting 7
2018-Apr-25 14:05 351 2 gusting 6 20.6
2018-Apr-25 13:50 346 1 gusting 6 21.1
2018-Apr-25 13:35 024 3 gusting 6
2018-Apr-25 13:20 024 0 gusting 6 21.7
2018-Apr-25 13:04 355 0 gusting 6 21.1
2018-Apr-25 12:49 360 1 gusting 7 21.1
2018-Apr-25 12:34 360 1 gusting 6 21.1
2018-Apr-25 12:19 042 1 gusting 6 20.6
2018-Apr-25 12:04 350 1 gusting 5 21.1
2018-Apr-25 11:49 029 21.1
2018-Apr-25 11:34 034 20.6
2018-Apr-25 11:19 355 20.6
2018-Apr-25 11:04 024 20.6
2018-Apr-25 10:49 016 0 gusting 5
2018-Apr-25 10:34 039 20.0
2018-Apr-25 10:19 032 1 gusting 5 20.0
2018-Apr-25 10:04 360 1 gusting 5
2018-Apr-25 09:48 360 20.6
2018-Apr-25 09:33 053 20.6
2018-Apr-25 09:18 360 0 gusting 6
2018-Apr-25 09:03 355 1 gusting 6 19.4
2018-Apr-25 08:48 042 1 gusting 5 20.0
2018-Apr-25 08:33 348 2 gusting 7 20.0
2018-Apr-25 08:18 306 4 gusting 8 20.0
2018-Apr-25 08:03 360 1 gusting 6 19.4
2018-Apr-25 07:48 355 1 gusting 6 19.4
2018-Apr-25 07:33 360 3 gusting 8 18.9
2018-Apr-25 07:18 326 2 gusting 6 18.9
2018-Apr-25 07:03 334 4 gusting 7 18.9
2018-Apr-25 06:48 360 3 gusting 6 18.9
2018-Apr-25 06:33 005 2 gusting 6 18.3
2018-Apr-25 06:17 025 18.3
2018-Apr-25 06:02 342 17.8
2018-Apr-25 05:47 360 0 gusting 6 17.8
2018-Apr-25 05:32 351 17.2
2018-Apr-25 05:17 011 16.7
2018-Apr-25 05:02 022 16.1
2018-Apr-25 04:47 022 16.7
2018-Apr-25 04:32 022 16.7
2018-Apr-25 04:17 015 16.7
2018-Apr-25 04:02 012 16.7
2018-Apr-25 03:47 015 16.7
2018-Apr-25 03:32 360 16.7
2018-Apr-25 03:17 014 16.7
2018-Apr-25 03:01 360 16.7
2018-Apr-25 02:46 056 16.7
2018-Apr-25 02:31 057 17.2
2018-Apr-25 02:16 057 17.2
2018-Apr-25 02:01 057 17.2
2018-Apr-25 01:46 057 17.2
2018-Apr-25 01:31 057 17.2
2018-Apr-25 01:16 057 17.2
2018-Apr-25 01:01 057 17.2
2018-Apr-25 00:46 057 17.2
2018-Apr-25 00:31 058 17.2
2018-Apr-25 00:16 059 17.2
2018-Apr-25 00:01 055 17.2
2018-Apr-24 23:45 055 17.8
2018-Apr-24 23:30 065 17.2
2018-Apr-24 23:15 360 17.8
2018-Apr-24 23:00 360 17.2
2018-Apr-24 22:45 063 17.8
2018-Apr-24 22:30 062 17.8
2018-Apr-24 22:15 081 17.8
2018-Apr-24 22:00 061
2018-Apr-24 21:45 058 18.3
2018-Apr-24 21:30 056 18.3
2018-Apr-24 21:15 055
2018-Apr-24 21:00 017 18.3
2018-Apr-24 20:45 360 18.3
2018-Apr-24 20:30 005
2018-Apr-24 20:14 005 18.3
2018-Apr-24 19:59 005 18.3
2018-Apr-24 19:44 360 18.3
2018-Apr-24 19:29 005 18.3
2018-Apr-24 19:14 009 18.3
2018-Apr-24 18:59 009 18.3
2018-Apr-24 18:44 010 18.9
2018-Apr-24 18:29 009 18.9
2018-Apr-24 18:14 009 18.9
2018-Apr-24 17:59 005 18.9
2018-Apr-24 17:44 009
2018-Apr-24 17:29 005 19.4
2018-Apr-24 17:14 350 20.0
2018-Apr-24 16:59 360
2018-Apr-24 16:43 029 1 gusting 5 20.0
2018-Apr-24 16:28 011 0 gusting 5 20.6
2018-Apr-24 16:13 355
2018-Apr-24 15:58 009 1 gusting 4 21.1
2018-Apr-24 15:43 059 0 gusting 6 21.1
2018-Apr-24 15:28 033 0 gusting 5 21.1
2018-Apr-24 15:13 015 0 gusting 7 21.1
2018-Apr-24 14:58 340 1 gusting 6 20.6
2018-Apr-24 14:43 360 21.7
2018-Apr-24 14:28 049 1 gusting 6 22.2
2018-Apr-24 14:13 056 0 gusting 6 21.7
2018-Apr-24 13:58 360 3 gusting 6 21.1
2018-Apr-24 13:43 009 2 gusting 7 21.1
2018-Apr-24 13:27 038 0 gusting 6
2018-Apr-24 13:12 011 21.7
2018-Apr-24 12:57 355 2 gusting 6 21.7
2018-Apr-24 12:42 336
2018-Apr-24 12:27 360 3 gusting 6 21.7
2018-Apr-24 12:12 042 1 gusting 7 21.7
2018-Apr-24 11:57 017
2018-Apr-24 11:42 350 21.1
2018-Apr-24 11:27 011 2 gusting 6 21.1
2018-Apr-24 11:12 345 0 gusting 6
2018-Apr-24 10:57 321 1 gusting 6 20.6
2018-Apr-24 10:42 355 3 gusting 6 20.6
2018-Apr-24 10:27 024 1 gusting 7 20.6
2018-Apr-24 10:11 360 1 gusting 6 20.0
2018-Apr-24 09:56 016 3 gusting 6 20.0
2018-Apr-24 09:41 347 1 gusting 6 20.6
2018-Apr-24 09:26 011 0 gusting 6 20.6
2018-Apr-24 09:11 360 20.0
2018-Apr-24 08:56 017 1 gusting 6 20.0
2018-Apr-24 08:41 348 1 gusting 5 19.4
2018-Apr-24 08:26 360 3 gusting 7
2018-Apr-24 08:11 351 3 gusting 7 18.9
2018-Apr-24 07:56 044 2 gusting 6 18.9
2018-Apr-24 07:41 348 3 gusting 7
2018-Apr-24 07:27 034 18.9
2018-Apr-24 07:11 036 18.9
2018-Apr-24 06:55 034 18.9
2018-Apr-24 06:40 033 18.3
2018-Apr-24 06:25 034 18.9
2018-Apr-24 06:10 032 18.3
2018-Apr-24 05:55 033 17.8
2018-Apr-24 05:40 032 17.8
2018-Apr-24 05:25 033 17.2
2018-Apr-24 05:10 033 17.2
2018-Apr-24 04:55 032 16.7
2018-Apr-24 04:40 032 16.7
2018-Apr-24 04:25 032 16.7
2018-Apr-24 04:10 032 16.7
2018-Apr-24 03:55 032 16.7
2018-Apr-24 03:40 032 16.7
2018-Apr-24 03:25 032 16.7
2018-Apr-24 03:09 032 16.7
2018-Apr-24 02:54 032 16.7
2018-Apr-24 02:39 032 16.7
2018-Apr-24 02:24 032 17.2
2018-Apr-24 02:09 028 17.2
2018-Apr-24 01:54 360 17.2
2018-Apr-24 01:39 009 17.2
2018-Apr-24 01:24 009 17.2
2018-Apr-24 01:09 005 17.2
2018-Apr-24 00:54 005 17.2
2018-Apr-24 00:39 005 16.7
2018-Apr-24 00:24 360 16.7
2018-Apr-24 00:09 005 16.7
2018-Apr-23 23:54 005 17.2
2018-Apr-23 23:38 005 17.2
2018-Apr-23 23:23 360 17.2
2018-Apr-23 23:08 360
2018-Apr-23 22:53 005 17.8
2018-Apr-23 22:38 005 17.8
2018-Apr-23 22:23 355 17.8
2018-Apr-23 22:08 051 17.8
2018-Apr-23 21:53 051 17.8
2018-Apr-23 21:38 051 17.8
2018-Apr-23 21:23 051 17.8
2018-Apr-23 21:08 051
2018-Apr-23 20:53 051 18.3
2018-Apr-23 20:38 051 18.3
2018-Apr-23 20:23 051 18.3
2018-Apr-23 20:08 051 17.8
2018-Apr-23 19:53 051
2018-Apr-23 19:38 051 18.3
2018-Apr-23 19:23 051 18.3
2018-Apr-23 19:08 051 18.3
2018-Apr-23 18:53 051 18.3
2018-Apr-23 18:38 051 18.3
2018-Apr-23 18:23 051 18.9
2018-Apr-23 18:08 051
2018-Apr-23 17:53 051 18.9
2018-Apr-23 17:38 051 18.9
2018-Apr-23 17:22 051 0 gusting 6 19.4
2018-Apr-23 17:07 047 19.4
2018-Apr-23 16:53 046 19.4
2018-Apr-23 16:37 038 19.4
2018-Apr-23 16:22 044 20.0
2018-Apr-23 16:07 036 20.0
2018-Apr-23 15:52 013 20.0
2018-Apr-23 15:37 355 1 gusting 6 20.6
2018-Apr-23 15:22 024 0 gusting 5 21.1
2018-Apr-23 15:07 346 21.1
2018-Apr-23 14:52 063 0 gusting 4
2018-Apr-23 14:37 034 21.1
2018-Apr-23 14:22 019 0 gusting 6 21.1
2018-Apr-23 14:07 043 1 gusting 6 21.1